| time (UTC) | temp F | wind direction | speed knots | gust knots | rain 1hr in | rain 24hr in | rain mn in | humidity % | barometer mb |
| 20260902141529 | 70 | 315 | 5.2 | 15.6 | 0.00 | 0.00 | 0.00 | 32 | 1020.2 |
| 20260902140028 | 70 | 277 | 6.1 | 16.5 | 0.00 | 0.00 | 0.00 | 31 | 1020.1 |
| 20260902134526 | 69 | 281 | 7.8 | 14.8 | 0.00 | 0.00 | 0.00 | 31 | 1019.8 |
| 20260902133028 | 69 | 307 | 7.8 | 18.2 | 0.00 | 0.00 | 0.00 | 32 | 1019.8 |
| 20260902131523 | 68 | 11 | 10.4 | 19.1 | 0.00 | 0.00 | 0.00 | 33 | 1019.8 |
| 20260902130023 | 68 | 279 | 7.0 | 19.1 | 0.00 | 0.00 | 0.00 | 34 | 1019.4 |
| 20260902124522 | 68 | 328 | 7.8 | 22.6 | 0.00 | 0.00 | 0.00 | 34 | 1019.3 |
| 20260902123021 | 68 | 304 | 8.7 | 20.9 | 0.00 | 0.00 | 0.00 | 34 | 1019.4 |
| 20260902121520 | 68 | 324 | 7.8 | 20.0 | 0.00 | 0.00 | 0.00 | 33 | 1019.3 |
| 20260902120019 | 68 | 309 | 8.7 | 18.2 | 0.00 | 0.00 | 0.00 | 32 | 1019.0 |
| 20260902114519 | 68 | 295 | 8.7 | 20.9 | 0.00 | 0.00 | 0.00 | 32 | 1018.9 |
| 20260902113020 | 68 | 284 | 7.8 | 16.5 | 0.00 | 0.00 | 0.00 | 32 | 1018.9 |
| 20260902111520 | 68 | 290 | 8.7 | 21.7 | 0.00 | 0.00 | 0.00 | 33 | 1018.9 |
| 20260902110034 | 68 | 283 | 8.7 | 24.3 | 0.00 | 0.00 | 0.00 | 33 | 1019.0 |
| 20260902104532 | 68 | 288 | 7.0 | 22.6 | 0.00 | 0.00 | 0.00 | 35 | 1019.0 |
| 20260902103031 | 68 | 271 | 7.0 | 20.0 | 0.00 | 0.00 | 0.00 | 35 | 1019.0 |
| 20260902101514 | 68 | 254 | 6.1 | 18.2 | 0.00 | 0.00 | 0.00 | 37 | 1019.0 |
| 20260902100013 | 68 | 298 | 5.2 | 12.2 | 0.00 | 0.00 | 0.00 | 39 | 1019.5 |
| 20260902094509 | 67 | 330 | 3.5 | 14.8 | 0.00 | 0.00 | 0.00 | 41 | 1019.4 |
| 20260902093004 | 62 | 267 | 1.7 | 7.8 | 0.00 | 0.00 | 0.00 | 51 | 1019.4 |
| 20260902091504 | 59 | 105 | 0.0 | 0.9 | 0.00 | 0.00 | 0.00 | 73 | 1019.5 |
| 20260902090006 | 59 | 281 | 0.0 | 0.9 | 0.00 | 0.00 | 0.00 | 74 | 1019.7 |
| 20260902084602 | 59 | 281 | 0.0 | 0.0 | 0.00 | 0.00 | 0.00 | 73 | 1019.8 |
| 20260902083059 | 60 | 281 | 0.0 | 0.9 | 0.00 | 0.00 | 0.00 | 70 | 1019.7 |
| 20260902081557 | 59 | 281 | 0.0 | 0.9 | 0.00 | 0.00 | 0.00 | 72 | 1019.8 |
| 20260902080056 | 60 | 281 | 0.0 | 0.9 | 0.00 | 0.00 | 0.00 | 70 | 1019.9 |
| 20260902074555 | 60 | 281 | 0.0 | 0.9 | 0.00 | 0.00 | 0.00 | 71 | 1020.0 |
| 20260902073053 | 60 | 281 | 0.0 | 0.0 | 0.00 | 0.00 | 0.00 | 69 | 1020.1 |
| 20260902071553 | 60 | 281 | 0.0 | 0.0 | 0.00 | 0.00 | 0.00 | 67 | 1020.0 |
| 20260902070052 | 61 | 281 | 0.0 | 0.0 | 0.00 | 0.00 | 0.00 | 67 | 1020.1 |
| 20260902064601 | 61 | 281 | 0.0 | 0.9 | 0.00 | 0.00 | 0.00 | 69 | 1020.1 |
| 20260902063104 | 60 | 281 | 0.0 | 0.0 | 0.00 | 0.00 | 0.00 | 69 | 1020.2 |
| 20260902060044 | 62 | 281 | 0.0 | 0.9 | 0.00 | 0.00 | 0.00 | 68 | 1020.1 |
| 20260902054544 | 62 | 281 | 0.0 | 0.9 | 0.00 | 0.00 | 0.00 | 68 | 1020.1 |
| 20260902053044 | 62 | 273 | 0.0 | 0.0 | 0.00 | 0.00 | 0.00 | 67 | 1020.2 |
| 20260902051557 | 62 | 273 | 0.0 | 0.0 | 0.00 | 0.00 | 0.00 | 66 | 1020.2 |
| 20260902050043 | 63 | 273 | 0.0 | 0.0 | 0.00 | 0.00 | 0.00 | 65 | 1020.5 |
| 20260902044603 | 64 | 273 | 0.0 | 0.0 | 0.00 | 0.00 | 0.00 | 63 | 1020.8 |
| 20260902043047 | 64 | 273 | 0.0 | 0.0 | 0.00 | 0.00 | 0.00 | 62 | 1020.9 |
| 20260902041545 | 65 | 273 | 0.0 | 2.6 | 0.00 | 0.00 | 0.00 | 61 | 1021.0 |
| 20260902040042 | 66 | 131 | 0.0 | 2.6 | 0.00 | 0.00 | 0.00 | 60 | 1020.9 |
| 20260902034541 | 66 | 210 | 0.0 | 1.7 | 0.00 | 0.00 | 0.00 | 58 | 1021.1 |
| 20260902033040 | 67 | 219 | 0.0 | 2.6 | 0.00 | 0.00 | 0.00 | 58 | 1021.1 |
| 20260902031554 | 67 | 111 | 0.0 | 1.7 | 0.00 | 0.00 | 0.00 | 56 | 1021.1 |
| 20260902030040 | 67 | 85 | 0.9 | 4.3 | 0.00 | 0.00 | 0.00 | 55 | 1021.1 |
| 20260902024550 | 67 | 161 | 0.0 | 2.6 | 0.00 | 0.01 | 0.00 | 54 | 1020.7 |
| 20260902023041 | 67 | 146 | 0.0 | 1.7 | 0.00 | 0.01 | 0.00 | 54 | 1020.4 |
| 20260902021541 | 67 | 248 | 0.0 | 0.9 | 0.00 | 0.01 | 0.00 | 54 | 1019.9 |
| 20260902020042 | 68 | 248 | 0.0 | 2.6 | 0.00 | 0.01 | 0.00 | 52 | 1019.7 |
| 20260902014539 | 69 | 138 | 1.7 | 7.0 | 0.00 | 0.01 | 0.00 | 51 | 1019.4 |
| 20260902013037 | 70 | 109 | 2.6 | 11.3 | 0.00 | 0.01 | 0.00 | 50 | 1019.3 |
| 20260902011537 | 72 | 58 | 3.5 | 10.4 | 0.00 | 0.01 | 0.00 | 47 | 1019.3 |
| 20260902010040 | 73 | 132 | 6.1 | 11.3 | 0.00 | 0.01 | 0.00 | 44 | 1019.2 |
| 20260902004536 | 74 | 192 | 0.9 | 6.1 | 0.00 | 0.01 | 0.00 | 40 | 1019.2 |
| 20260902003036 | 76 | 121 | 2.6 | 7.0 | 0.00 | 0.01 | 0.00 | 38 | 1019.2 |
| 20260902001536 | 75 | 136 | 3.5 | 8.7 | 0.00 | 0.01 | 0.00 | 38 | 1019.3 |
| 20260902000034 | 76 | 120 | 1.7 | 6.1 | 0.00 | 0.01 | 0.00 | 36 | 1019.3 |
| 20260901234535 | 77 | 135 | 3.5 | 7.8 | 0.00 | 0.01 | 0.00 | 32 | 1019.2 |
| 20260901233035 | 77 | 76 | 1.7 | 6.1 | 0.00 | 0.01 | 0.00 | 28 | 1019.3 |
| 20260901231538 | 78 | 136 | 2.6 | 7.0 | 0.00 | 0.01 | 0.00 | 28 | 1019.1 |
| 20260901230033 | 78 | 105 | 0.9 | 4.3 | 0.00 | 0.01 | 0.00 | 28 | 1019.3 |
| 20260901224535 | 79 | 114 | 2.6 | 6.1 | 0.00 | 0.01 | 0.00 | 28 | 1019.3 |
| 20260901223031 | 79 | 111 | 3.5 | 7.0 | 0.00 | 0.01 | 0.00 | 29 | 1019.3 |
| 20260901221530 | 80 | 119 | 0.0 | 1.7 | 0.00 | 0.01 | 0.00 | 29 | 1019.6 |
| 20260901220026 | 79 | 102 | 0.0 | 3.5 | 0.00 | 0.01 | 0.00 | 32 | 1019.8 |
| 20260901214523 | 77 | 116 | 0.0 | 1.7 | 0.00 | 0.01 | 0.00 | 35 | 1020.0 |
| 20260901213028 | 77 | 119 | 0.0 | 1.7 | 0.00 | 0.01 | 0.00 | 34 | 1020.0 |
| 20260901211522 | 76 | 120 | 0.9 | 2.6 | 0.00 | 0.01 | 0.00 | 35 | 1020.3 |
| 20260901210020 | 77 | 126 | 1.7 | 7.0 | 0.00 | 0.01 | 0.00 | 35 | 1020.5 |
| 20260901204519 | 76 | 111 | 0.0 | 2.6 | 0.00 | 0.01 | 0.00 | 37 | 1020.6 |
| 20260901203018 | 75 | 137 | 0.9 | 5.2 | 0.00 | 0.01 | 0.00 | 38 | 1020.7 |
| 20260901201516 | 76 | 12 | 0.0 | 2.6 | 0.00 | 0.01 | 0.00 | 39 | 1020.8 |
| 20260901200018 | 76 | 225 | 1.7 | 5.2 | 0.00 | 0.01 | 0.00 | 39 | 1021.0 |
| 20260901194514 | 76 | 115 | 1.7 | 12.2 | 0.00 | 0.01 | 0.00 | 40 | 1021.1 |
| 20260901193014 | 77 | 126 | 2.6 | 7.8 | 0.00 | 0.01 | 0.00 | 37 | 1021.1 |
| 20260901191516 | 77 | 103 | 1.7 | 8.7 | 0.00 | 0.01 | 0.00 | 40 | 1021.2 |
| 20260901190013 | 76 | 115 | 3.5 | 7.8 | 0.00 | 0.01 | 0.00 | 42 | 1021.4 |
| 20260901184507 | 75 | 126 | 3.5 | 10.4 | 0.00 | 0.01 | 0.00 | 42 | 1021.6 |
| 20260901183017 | 74 | 140 | 3.5 | 7.0 | 0.00 | 0.01 | 0.00 | 41 | 1021.7 |
| 20260901181505 | 74 | 106 | 0.9 | 6.1 | 0.00 | 0.01 | 0.00 | 43 | 1021.8 |
| 20260901180006 | 74 | 120 | 2.6 | 7.0 | 0.00 | 0.01 | 0.00 | 43 | 1022.1 |
| 20260901174502 | 73 | 122 | 0.9 | 3.5 | 0.00 | 0.01 | 0.00 | 47 | 1022.3 |
| 20260901173138 | 71 | 129 | 0.0 | 4.3 | 0.00 | 0.01 | 0.00 | 52 | 1022.4 |
| 20260901171558 | 69 | 111 | 0.9 | 4.3 | 0.00 | 0.01 | 0.00 | 52 | 1022.8 |
| 20260901170055 | 67 | 126 | 1.7 | 5.2 | 0.00 | 0.01 | 0.00 | 60 | 1023.0 |
| 20260901164548 | 65 | 202 | 0.0 | 1.7 | 0.00 | 0.01 | 0.00 | 62 | 1022.9 |
| 20260901163103 | 62 | 121 | 0.0 | 2.6 | 0.00 | 0.01 | 0.00 | 72 | 1022.8 |
| 20260901161549 | 62 | 116 | 0.0 | 1.7 | 0.00 | 0.01 | 0.00 | 72 | 1022.5 |
| 20260901160040 | 61 | 271 | 0.0 | 0.0 | 0.00 | 0.01 | 0.00 | 77 | 1022.6 |
| 20260901154533 | 59 | 271 | 0.0 | 1.7 | 0.00 | 0.01 | 0.00 | 78 | 1022.4 |
| 20260901153031 | 59 | 260 | 0.0 | 0.9 | 0.00 | 0.01 | 0.00 | 80 | 1022.7 |
| 20260901151531 | 59 | 260 | 0.0 | 0.0 | 0.00 | 0.01 | 0.00 | 81 | 1022.7 |
| 20260901150032 | 59 | 260 | 0.0 | 0.9 | 0.00 | 0.01 | 0.00 | 79 | 1022.4 |
| 20260901144528 | 58 | 260 | 0.0 | 0.0 | 0.00 | 0.01 | 0.00 | 79 | 1022.5 |
| 20260901143029 | 58 | 260 | 0.0 | 0.9 | 0.00 | 0.01 | 0.00 | 80 | 1022.4 |